SCP
0 0 0 0 0 0 0 0 0 0 0 0 0 0 0 0 0 0 0 0 0 0 0 0 0 0 0 0 0 0 0 0 0 0 0 -0 -0 0 0 0 0 -0 -0 -0
0 0 0 0 0 0 0 0 0 0 0 0 0 0 0 0 0 0 0 0 0 0 0 0 0 0 0 0 0 0 0 0 0 0 0 0 -0 0 0 0 -0 0 -0 -0
0 0 0 0 0 0 0 0 0 0 0 0 0 0 0 0 0 0 0 0 0 0 0 0 0 0 0 0 0 0 0 0 0 0 0 0 0 0 0 -0 -0 0 0 0
0 0 0 0 0 0 0 0 0 0 0 0 0 0 0 0 0 0 0 0 0 0 0 0 0 0 0 0 0 0 0 0 0 0 0 0 0 0 0 0 -0 0 0 0
0 0 0 0 0 0 0 0 0 0 0 0 0 0 0 0 0 0 0 0 0 0 0 0 0 0 0 0 0 0 0 0 0 0 0 0 0 0 0 0 -0 0 0 0
0 0 0 0 0 0 0 0 0 0 0 0 0 0 0 0 0 0 0 0 0 0 0 0 0 0 0 0 0 0 0 0 0 0 0 0 0 0 0 0 0 0 0 0
0 0 0 0 0 0 0 0 0 0 0 0 0 0 0 0 0 0 0 0 0 0 0 0 0 0 0 0 0 0 0 0 0 0 0 0 0 0 -0 0 0 0 0 0
0 0 0 0 0 0 0 0 0 0 0 0 0 0 0 0 0 0 0 0 0 0 0 0 0 0 0 0 0 0 0 0 0 0 0 0 0 -0 0 0 0 0 0 0
0 0 0 0 0 0 0 0 0 0 0 0 0 0 0 0 0 0 0 0 0 0 0 0 0 0 0 0 0 0 0 0 0 0 0 0 0 -0 -0 0 0 0 0 0
0 0 0 0 0 0 0 0 0 0 0 0 0 0 0 0 0 0 0 0 0 0 0 0 0 0 0 0 0 0 -0 0 0 0 0 0 0 0 -0 -0 0 0 0 0
0 0 0 0 0 0 0 0 0 0 0 0 0 0 0 0 0 0 0 0 0 0 0 0 0 0 0 0 0 0 -0 -0 -0 -0 0 0 0 0 -0 -0 -0 -0 -0 0
0 0 0 0 0 0 0 0 0 0 0 0 0 0 0 0 0 0 0 0 0 0 0 0 0 0 0 0 0 -0 -0 -0 -0 -0 0 0 0 -0 -0 -0 -0 -0 0 0
0 0 0 0 0 0 0 0 0 0 0 0 0 0 0 0 0 0 0 0 0 0 0 0 0 0 0 0 -0 -0 -0 -0 -0 -0 -0 0 -0 -0 -0 -0 -0 -0 -0 0
0 0 0 0 0 0 0 0 0 0 0 0 0 0 0 0 0 0 0 0 0 0 0 0 0 0 0 0 -0 -0 -0 -0 -0 -0 -0 0 -0 -0 -0 -0 -0 0 -0 0
0 0 0 0 0 0 0 0 0 0 0 0 0 0 0 0 0 0 0 0 0 0 0 0 0 0 0 0 -0 -0 -0 -0 -0 -0 -0 -0 0 -0 -0 -0 0 0 0 0
0 0 0 0 0 0 0 0 0 0 0 0 0 0 0 0 0 0 0 0 0 0 0 0 0 0 0 0 -0 -0 -0 -0 -0 -0 -0 -0 -0 -0 0 -0 0 0 0 0
0 0 0 0 0 0 0 0 0 0 0 0 0 0 0 0 0 0 0 0 0 0 0 0 0 0 0 0 -0 -0 -0 -0 -0 -0 -0 -0 0 -0 0 0 0 0 0 0
0 0 0 0 0 0 0 0 0 0 0 0 0 0 0 0 0 0 0 0 0 0 0 0 0 0 0 0 0 -0 -0 -0 -0 -0 -0 -0 -0 -0 -0 0 0 0 0 0
0 0 0 0 0 0 0 0 0 0 0 0 0 0 0 0 0 0 0 0 0 0 0 0 0 0 0 0 0 0 -0 0 -0 -0 -0 0 0 0 -0 -0 0 0 0 0
0 0 0 0 0 0 0 0 0 0 0 0 0 0 0 0 0 0 0 0 0 0 0 0 0 0 0 0 0 0 0 0 0 0 0 -0 -0 0 0 -0 -0 0 0 0
0 0 0 0 0 0 0 0 0 0 0 0 0 0 0 0 0 0 0 0 0 0 0 0 0 0 0 0 0 0 0 0 0 0 0 0 -0 -0 -0 -0 -0 -0 -0 0
0 0 0 0 0 0 0 0 0 0 0 0 0 0 0 0 0 0 0 0 0 0 0 0 0 0 0 0 0 0 0 0 0 0 0 0 0 0 -0 -0 -0 -0 -0 -0
0 0 0 0 0 0 0 0 0 0 0 0 0 0 0 0 0 0 0 0 0 0 0 0 0 0 0 0 0 0 0 0 -0 -0 0 0 0 0 0 0 0 0 -0 -0
0 0 0 0 0 0 0 0 0 0 0 0 0 0 0 0 0 0 0 0 0 0 0 0 0 0 0 0 0 0 0 0 0 -0 -0 -0 -0 0 -0 0 0 0 0 0
0 0 0 0 0 0 0 0 0 0 0 0 0 0 0 0 0 0 0 0 0 0 0 0 0 0 0 0 0 0 0 0 0 0 0 -0 -0 -0 -0 0 0 0 0 0
0 0 0 0 0 0 0 0 0 0 0 0 0 0 0 0 0 0 0 0 0 0 0 0 0 0 0 0 0 0 0 0 0 0 0 0 -0 -0 -0 -0 -0 0 0 0
0 0 0 0 0 0 0 0 0 0 0 0 0 0 0 0 0 0 0 0 0 0 0 0 0 0 0 0 0 0 0 0 0 0 0 0 0 0 0 0 0 0 0 0
Wind_Speed_500mb
42 31 18 26 18 26 37 46 35 67 43 43 17 8 3 16 27 39 49 53 60 85 92 93 96 109 116 115 120 124 123 116 108 102 95 88 90 76 67 61 69 75 92 95
31 13 20 34 33 33 44 51 49 56 66 36 41 26 10 18 29 41 48 49 70 84 93 93 98 113 119 120 122 123 118 117 107 101 99 93 88 77 63 62 76 75 81 94
12 9 15 29 44 54 55 39 46 45 59 24 11 5 8 17 34 37 43 62 73 82 92 100 104 107 116 119 122 118 113 117 104 100 94 94 88 84 77 78 68 73 75 84
2 8 13 7 5 7 22 37 39 48 45 11 3 5 12 26 26 27 53 66 72 82 91 94 98 103 110 114 116 111 111 114 101 101 100 96 90 83 82 75 71 67 77 74
8 13 23 31 10 15 15 14 23 35 28 12 11 6 19 10 16 41 52 58 65 72 81 90 95 101 107 114 116 107 107 122 108 100 94 89 83 78 74 74 68 66 70 70
9 9 16 3 5 27 13 20 30 28 16 13 14 3 7 14 32 42 48 55 63 69 76 85 92 97 104 110 117 115 123 127 102 86 83 83 80 76 70 65 62 57 64 58
23 16 19 14 24 24 10 9 11 29 24 22 9 20 15 29 32 37 46 57 61 67 75 81 90 98 105 109 112 117 121 121 98 90 91 88 86 81 70 59 47 52 56 53
15 14 31 38 23 17 9 29 40 33 33 33 38 32 28 27 32 40 50 57 63 72 80 81 85 93 102 107 112 117 121 117 100 97 91 80 75 64 62 52 48 49 48 52
28 17 2 70 14 52 28 39 46 38 35 29 30 23 21 26 33 43 53 58 64 72 80 83 85 88 98 104 111 115 118 116 102 98 87 82 70 56 52 47 42 46 43 43
10 18 24 40 39 23 42 30 29 24 23 27 22 20 22 25 30 39 46 55 63 71 77 83 85 86 89 97 103 109 114 113 102 98 96 86 70 53 43 41 54 56 56 52
11 18 8 33 53 56 42 38 29 26 24 23 21 23 23 25 30 34 41 49 56 62 69 77 82 85 88 93 98 104 107 108 101 94 93 91 79 64 47 35 43 35 45 55
16 26 30 22 51 48 47 46 39 31 29 29 27 26 23 25 28 31 40 48 54 57 64 72 77 81 85 87 91 95 101 103 97 91 91 87 87 80 44 41 34 20 26 42
14 25 48 25 31 32 33 35 35 35 33 32 29 26 24 24 24 30 38 43 48 55 59 65 70 76 79 82 84 86 89 93 91 86 88 86 83 82 84 46 34 42 18 25
50 34 22 39 29 34 34 35 36 33 32 32 32 29 29 23 21 28 34 40 44 47 52 59 64 69 74 78 78 79 81 83 84 82 80 80 75 74 70 73 72 65 51 29
67 60 45 36 36 34 39 41 42 41 40 39 37 35 28 20 20 24 31 36 39 42 46 52 59 63 69 72 73 73 76 80 82 81 79 78 78 77 75 71 71 73 73 50
65 64 60 47 41 45 46 47 49 48 46 45 42 36 26 20 18 22 28 34 39 44 47 47 51 57 63 66 68 68 68 70 74 79 83 87 89 88 87 86 84 86 95 84
47 37 42 46 54 59 61 56 54 51 49 49 44 36 27 19 15 18 22 27 33 36 39 42 44 49 53 57 61 64 67 67 69 74 80 84 87 93 96 95 96 96 89 85
65 57 57 57 60 63 61 58 54 53 55 52 44 37 27 18 14 14 17 21 25 27 29 32 35 39 44 49 53 56 59 64 69 71 74 80 85 87 91 95 97 99 99 98
62 59 58 54 58 44 49 55 56 59 56 50 46 36 25 17 12 13 16 18 20 21 22 24 28 32 36 42 45 49 53 56 61 67 70 72 76 81 86 89 91 92 95 98
65 63 62 57 49 47 50 53 56 57 54 51 45 34 23 15 12 11 14 16 20 21 21 22 24 28 32 37 40 43 46 51 55 59 64 68 72 74 77 81 84 86 88 88
60 59 57 55 52 50 50 50 55 59 55 48 37 28 22 16 10 8 12 16 17 17 17 18 20 25 29 33 36 39 41 44 48 53 58 61 63 67 71 72 74 77 78 77
60 56 53 52 52 52 51 50 49 51 49 43 38 30 21 14 9 8 10 12 11 10 11 14 17 22 26 29 31 34 37 40 42 44 47 52 56 59 63 64 67 67 66 66
57 55 53 52 53 51 47 45 48 46 43 40 33 26 19 14 11 10 8 9 8 9 8 11 14 18 23 26 28 30 33 35 39 42 43 45 47 49 51 53 54 55 57 59
50 50 51 51 50 50 52 52 48 45 41 36 29 23 17 14 13 10 8 7 6 5 6 9 13 17 21 23 24 26 28 32 34 35 37 39 40 42 44 46 47 48 47 47
46 48 49 51 52 53 51 53 52 48 42 34 28 23 18 15 12 9 9 9 7 4 4 7 11 16 19 22 23 24 26 28 30 33 34 34 36 37 38 40 42 43 43 44
44 46 47 47 47 49 50 51 49 44 39 35 28 22 18 15 12 10 9 10 9 5 5 6 9 14 17 20 22 23 24 26 28 30 32 33 34 34 34 35 35 36 37 38
42 43 46 46 45 44 44 43 42 40 34 27 22 23 20 17 14 12 11 11 9 7 6 7 9 12 14 17 20 23 24 25 26 27 29 31 32 34 35 35 36 36 35 35
Wind_Direction_500mb
255 272 278 266 252 219 219 234 232 261 246 265 257 206 144 343 332 328 326 322 316 320 324 324 325 330 331 328 330 328 327 326 319 314 311 305 304 302 288 285 282 277 258 253
266 278 274 267 248 248 245 242 247 257 270 258 281 280 341 328 336 324 319 314 318 324 325 325 328 333 331 332 330 331 330 326 323 313 311 308 306 304 288 282 284 285 267 255
247 61 336 282 234 233 244 240 238 247 251 283 245 248 1 336 324 314 308 317 323 324 326 329 332 333 332 331 334 333 328 329 321 317 310 306 302 298 293 279 276 282 276 255
239 109 247 242 185 221 244 251 245 252 257 234 210 108 311 318 300 306 321 322 324 325 326 328 332 335 332 335 335 331 330 329 321 318 313 307 302 297 296 289 276 272 277 266
212 200 298 296 203 171 182 252 227 235 245 213 126 43 299 268 294 322 318 318 320 322 325 329 336 336 336 338 338 333 332 332 330 321 319 316 313 310 304 292 277 263 269 271
165 219 235 151 112 105 95 270 217 212 219 160 112 136 246 270 298 310 317 318 321 326 330 337 339 340 338 340 342 338 338 338 334 334 330 326 321 316 311 299 282 266 268 253
226 237 273 205 153 134 147 255 125 190 163 159 186 225 238 283 301 312 320 325 329 331 337 343 343 342 342 343 343 341 342 340 340 343 340 329 321 317 316 307 283 275 273 246
204 220 252 150 141 189 185 152 152 160 178 204 233 235 266 287 305 319 327 332 335 338 341 347 350 345 343 345 345 346 346 343 347 349 337 336 329 326 319 305 287 285 271 252
198 212 115 168 178 199 175 168 176 187 198 218 213 235 259 287 312 326 330 337 340 341 341 349 352 350 346 346 348 346 350 345 351 346 346 343 339 336 338 319 296 281 266 267
153 219 227 203 204 191 209 199 195 206 214 210 220 243 266 293 314 322 332 340 342 342 345 348 351 352 351 350 350 349 353 348 353 348 349 348 348 342 337 347 317 290 279 268
249 270 253 221 221 226 222 216 217 231 232 227 245 259 270 293 308 323 336 340 343 345 346 349 351 354 354 354 354 354 356 351 354 352 349 348 350 349 342 331 347 321 286 280
211 199 207 215 224 228 215 216 227 226 224 234 243 250 265 288 306 328 338 342 345 348 348 351 352 355 356 357 359 360 359 355 357 356 352 351 352 351 4 358 3 322 265 275
205 192 207 203 208 194 204 215 221 225 231 234 241 246 261 280 308 330 337 344 347 349 350 351 355 357 359 0 2 6 5 2 1 5 358 358 359 360 357 3 29 26 316 277
211 195 173 192 190 200 212 218 219 224 233 235 239 244 256 275 308 326 338 345 348 348 350 352 357 0 3 3 6 10 12 12 9 14 10 10 11 8 11 12 12 20 30 24
218 224 228 225 209 208 213 216 220 227 231 229 231 240 249 271 304 326 338 342 347 347 350 354 358 3 7 6 9 14 16 19 17 20 24 24 24 27 28 29 27 28 27 45
215 221 225 221 221 219 216 219 223 227 228 226 229 233 242 263 297 323 336 340 343 349 353 359 360 4 7 8 12 16 21 26 26 25 29 34 35 35 37 38 36 37 36 30
187 181 192 206 216 219 225 231 232 234 228 225 226 226 234 252 289 319 333 339 342 346 348 356 1 5 7 9 15 18 23 27 32 34 33 36 40 41 43 44 46 45 46 36
219 226 225 222 220 224 224 227 228 225 223 223 221 220 225 243 278 310 328 336 340 340 346 353 358 5 6 11 16 20 24 29 32 35 38 38 39 43 46 47 47 50 52 55
220 222 227 232 228 230 229 226 223 222 219 216 214 213 219 236 271 303 321 330 334 339 346 352 358 2 9 12 15 19 22 28 32 36 38 40 41 41 43 47 48 48 49 52
221 224 225 227 223 225 219 218 220 215 211 208 205 207 215 233 262 294 313 323 333 343 353 355 355 2 10 12 16 20 22 26 30 33 36 38 40 41 41 41 44 46 48 48
215 215 216 216 212 210 213 216 212 206 203 200 201 205 211 222 244 283 306 322 338 343 348 349 358 4 10 10 12 17 23 27 29 30 31 34 36 38 37 40 41 41 43 44
205 205 204 203 203 203 204 204 200 197 193 191 194 200 203 211 233 269 293 301 321 332 337 343 356 2 7 9 11 13 19 24 27 30 32 32 31 33 35 36 36 37 39 40
199 201 201 201 201 199 192 189 187 189 189 192 194 197 199 209 232 253 267 276 294 323 334 344 355 358 2 4 8 10 14 20 23 24 27 28 28 30 32 34 35 35 34 33
195 194 194 193 189 187 184 180 181 182 185 186 189 193 205 219 229 241 247 250 261 286 325 342 346 351 357 1 4 7 10 12 18 20 22 22 23 25 24 24 28 32 33 35
189 186 185 184 184 183 181 179 179 179 181 182 186 195 205 214 219 228 239 246 253 266 309 337 341 346 350 352 356 1 2 4 7 10 12 16 18 19 20 19 19 21 23 25
173 176 176 180 183 180 179 180 182 179 180 184 188 193 195 201 209 210 232 244 247 256 281 311 331 339 339 339 343 349 353 358 359 0 3 5 8 11 13 14 15 16 16 18
161 166 168 167 172 177 179 179 180 182 183 186 189 186 190 199 205 214 226 240 257 264 264 285 308 316 320 326 332 337 342 346 349 351 353 355 357 358 0 3 5 7 8 9
Wind_Speed_850mb
42 31 18 26 18 26 37 46 35 67 43 43 17 8 3 16 27 39 49 53 60 85 92 93 96 109 116 115 120 124 123 116 108 102 95 88 90 76 67 61 69 75 92 95
31 13 20 34 33 33 44 51 49 56 66 36 41 26 10 18 29 41 48 49 70 84 93 93 98 113 119 120 122 123 118 117 107 101 99 93 88 77 63 62 76 75 81 94
12 9 15 29 44 54 55 39 46 45 59 24 11 5 8 17 34 37 43 62 73 82 92 100 104 107 116 119 122 118 113 117 104 100 94 94 88 84 77 78 68 73 75 84
2 8 13 7 5 7 22 37 39 48 45 11 3 5 12 26 26 27 53 66 72 82 91 94 98 103 110 114 116 111 111 114 101 101 100 96 90 83 82 75 71 67 77 74
8 13 23 31 10 15 15 14 23 35 28 12 11 6 19 10 16 41 52 58 65 72 81 90 95 101 107 114 116 107 107 122 108 100 94 89 83 78 74 74 68 66 70 70
9 9 16 3 5 27 13 20 30 28 16 13 14 3 7 14 32 42 48 55 63 69 76 85 92 97 104 110 117 115 123 127 102 86 83 83 80 76 70 65 62 57 64 58
23 16 19 14 24 24 10 9 11 29 24 22 9 20 15 29 32 37 46 57 61 67 75 81 90 98 105 109 112 117 121 121 98 90 91 88 86 81 70 59 47 52 56 53
15 14 31 38 23 17 9 29 40 33 33 33 38 32 28 27 32 40 50 57 63 72 80 81 85 93 102 107 112 117 121 117 100 97 91 80 75 64 62 52 48 49 48 52
28 17 2 70 14 52 28 39 46 38 35 29 30 23 21 26 33 43 53 58 64 72 80 83 85 88 98 104 111 115 118 116 102 98 87 82 70 56 52 47 42 46 43 43
10 18 24 40 39 23 42 30 29 24 23 27 22 20 22 25 30 39 46 55 63 71 77 83 85 86 89 97 103 109 114 113 102 98 96 86 70 53 43 41 54 56 56 52
11 18 8 33 53 56 42 38 29 26 24 23 21 23 23 25 30 34 41 49 56 62 69 77 82 85 88 93 98 104 107 108 101 94 93 91 79 64 47 35 43 35 45 55
16 26 30 22 51 48 47 46 39 31 29 29 27 26 23 25 28 31 40 48 54 57 64 72 77 81 85 87 91 95 101 103 97 91 91 87 87 80 44 41 34 20 26 42
14 25 48 25 31 32 33 35 35 35 33 32 29 26 24 24 24 30 38 43 48 55 59 65 70 76 79 82 84 86 89 93 91 86 88 86 83 82 84 46 34 42 18 25
50 34 22 39 29 34 34 35 36 33 32 32 32 29 29 23 21 28 34 40 44 47 52 59 64 69 74 78 78 79 81 83 84 82 80 80 75 74 70 73 72 65 51 29
67 60 45 36 36 34 39 41 42 41 40 39 37 35 28 20 20 24 31 36 39 42 46 52 59 63 69 72 73 73 76 80 82 81 79 78 78 77 75 71 71 73 73 50
65 64 60 47 41 45 46 47 49 48 46 45 42 36 26 20 18 22 28 34 39 44 47 47 51 57 63 66 68 68 68 70 74 79 83 87 89 88 87 86 84 86 95 84
47 37 42 46 54 59 61 56 54 51 49 49 44 36 27 19 15 18 22 27 33 36 39 42 44 49 53 57 61 64 67 67 69 74 80 84 87 93 96 95 96 96 89 85
65 57 57 57 60 63 61 58 54 53 55 52 44 37 27 18 14 14 17 21 25 27 29 32 35 39 44 49 53 56 59 64 69 71 74 80 85 87 91 95 97 99 99 98
62 59 58 54 58 44 49 55 56 59 56 50 46 36 25 17 12 13 16 18 20 21 22 24 28 32 36 42 45 49 53 56 61 67 70 72 76 81 86 89 91 92 95 98
65 63 62 57 49 47 50 53 56 57 54 51 45 34 23 15 12 11 14 16 20 21 21 22 24 28 32 37 40 43 46 51 55 59 64 68 72 74 77 81 84 86 88 88
60 59 57 55 52 50 50 50 55 59 55 48 37 28 22 16 10 8 12 16 17 17 17 18 20 25 29 33 36 39 41 44 48 53 58 61 63 67 71 72 74 77 78 77
60 56 53 52 52 52 51 50 49 51 49 43 38 30 21 14 9 8 10 12 11 10 11 14 17 22 26 29 31 34 37 40 42 44 47 52 56 59 63 64 67 67 66 66
57 55 53 52 53 51 47 45 48 46 43 40 33 26 19 14 11 10 8 9 8 9 8 11 14 18 23 26 28 30 33 35 39 42 43 45 47 49 51 53 54 55 57 59
50 50 51 51 50 50 52 52 48 45 41 36 29 23 17 14 13 10 8 7 6 5 6 9 13 17 21 23 24 26 28 32 34 35 37 39 40 42 44 46 47 48 47 47
46 48 49 51 52 53 51 53 52 48 42 34 28 23 18 15 12 9 9 9 7 4 4 7 11 16 19 22 23 24 26 28 30 33 34 34 36 37 38 40 42 43 43 44
44 46 47 47 47 49 50 51 49 44 39 35 28 22 18 15 12 10 9 10 9 5 5 6 9 14 17 20 22 23 24 26 28 30 32 33 34 34 34 35 35 36 37 38
42 43 46 46 45 44 44 43 42 40 34 27 22 23 20 17 14 12 11 11 9 7 6 7 9 12 14 17 20 23 24 25 26 27 29 31 32 34 35 35 36 36 35 35
Wind_Direction_850mb
255 272 278 266 252 219 219 234 232 261 246 265 257 206 144 343 332 328 326 322 316 320 324 324 325 330 331 328 330 328 327 326 319 314 311 305 304 302 288 285 282 277 258 253
266 278 274 267 248 248 245 242 247 257 270 258 281 280 341 328 336 324 319 314 318 324 325 325 328 333 331 332 330 331 330 326 323 313 311 308 306 304 288 282 284 285 267 255
247 61 336 282 234 233 244 240 238 247 251 283 245 248 1 336 324 314 308 317 323 324 326 329 332 333 332 331 334 333 328 329 321 317 310 306 302 298 293 279 276 282 276 255
239 109 247 242 185 221 244 251 245 252 257 234 210 108 311 318 300 306 321 322 324 325 326 328 332 335 332 335 335 331 330 329 321 318 313 307 302 297 296 289 276 272 277 266
212 200 298 296 203 171 182 252 227 235 245 213 126 43 299 268 294 322 318 318 320 322 325 329 336 336 336 338 338 333 332 332 330 321 319 316 313 310 304 292 277 263 269 271
165 219 235 151 112 105 95 270 217 212 219 160 112 136 246 270 298 310 317 318 321 326 330 337 339 340 338 340 342 338 338 338 334 334 330 326 321 316 311 299 282 266 268 253
226 237 273 205 153 134 147 255 125 190 163 159 186 225 238 283 301 312 320 325 329 331 337 343 343 342 342 343 343 341 342 340 340 343 340 329 321 317 316 307 283 275 273 246
204 220 252 150 141 189 185 152 152 160 178 204 233 235 266 287 305 319 327 332 335 338 341 347 350 345 343 345 345 346 346 343 347 349 337 336 329 326 319 305 287 285 271 252
198 212 115 168 178 199 175 168 176 187 198 218 213 235 259 287 312 326 330 337 340 341 341 349 352 350 346 346 348 346 350 345 351 346 346 343 339 336 338 319 296 281 266 267
153 219 227 203 204 191 209 199 195 206 214 210 220 243 266 293 314 322 332 340 342 342 345 348 351 352 351 350 350 349 353 348 353 348 349 348 348 342 337 347 317 290 279 268
249 270 253 221 221 226 222 216 217 231 232 227 245 259 270 293 308 323 336 340 343 345 346 349 351 354 354 354 354 354 356 351 354 352 349 348 350 349 342 331 347 321 286 280
211 199 207 215 224 228 215 216 227 226 224 234 243 250 265 288 306 328 338 342 345 348 348 351 352 355 356 357 359 360 359 355 357 356 352 351 352 351 4 358 3 322 265 275
205 192 207 203 208 194 204 215 221 225 231 234 241 246 261 280 308 330 337 344 347 349 350 351 355 357 359 0 2 6 5 2 1 5 358 358 359 360 357 3 29 26 316 277
211 195 173 192 190 200 212 218 219 224 233 235 239 244 256 275 308 326 338 345 348 348 350 352 357 0 3 3 6 10 12 12 9 14 10 10 11 8 11 12 12 20 30 24
218 224 228 225 209 208 213 216 220 227 231 229 231 240 249 271 304 326 338 342 347 347 350 354 358 3 7 6 9 14 16 19 17 20 24 24 24 27 28 29 27 28 27 45
215 221 225 221 221 219 216 219 223 227 228 226 229 233 242 263 297 323 336 340 343 349 353 359 360 4 7 8 12 16 21 26 26 25 29 34 35 35 37 38 36 37 36 30
187 181 192 206 216 219 225 231 232 234 228 225 226 226 234 252 289 319 333 339 342 346 348 356 1 5 7 9 15 18 23 27 32 34 33 36 40 41 43 44 46 45 46 36
219 226 225 222 220 224 224 227 228 225 223 223 221 220 225 243 278 310 328 336 340 340 346 353 358 5 6 11 16 20 24 29 32 35 38 38 39 43 46 47 47 50 52 55
220 222 227 232 228 230 229 226 223 222 219 216 214 213 219 236 271 303 321 330 334 339 346 352 358 2 9 12 15 19 22 28 32 36 38 40 41 41 43 47 48 48 49 52
221 224 225 227 223 225 219 218 220 215 211 208 205 207 215 233 262 294 313 323 333 343 353 355 355 2 10 12 16 20 22 26 30 33 36 38 40 41 41 41 44 46 48 48
215 215 216 216 212 210 213 216 212 206 203 200 201 205 211 222 244 283 306 322 338 343 348 349 358 4 10 10 12 17 23 27 29 30 31 34 36 38 37 40 41 41 43 44
205 205 204 203 203 203 204 204 200 197 193 191 194 200 203 211 233 269 293 301 321 332 337 343 356 2 7 9 11 13 19 24 27 30 32 32 31 33 35 36 36 37 39 40
199 201 201 201 201 199 192 189 187 189 189 192 194 197 199 209 232 253 267 276 294 323 334 344 355 358 2 4 8 10 14 20 23 24 27 28 28 30 32 34 35 35 34 33
195 194 194 193 189 187 184 180 181 182 185 186 189 193 205 219 229 241 247 250 261 286 325 342 346 351 357 1 4 7 10 12 18 20 22 22 23 25 24 24 28 32 33 35
189 186 185 184 184 183 181 179 179 179 181 182 186 195 205 214 219 228 239 246 253 266 309 337 341 346 350 352 356 1 2 4 7 10 12 16 18 19 20 19 19 21 23 25
173 176 176 180 183 180 179 180 182 179 180 184 188 193 195 201 209 210 232 244 247 256 281 311 331 339 339 339 343 349 353 358 359 0 3 5 8 11 13 14 15 16 16 18
161 166 168 167 172 177 179 179 180 182 183 186 189 186 190 199 205 214 226 240 257 264 264 285 308 316 320 326 332 337 342 346 349 351 353 355 357 358 0 3 5 7 8 9